SL-8 R/B, 1589

Orbit data source: Space-Track

SL-8 R/B, 1589 is space debris in LEO originally from a launch on Sat, 18 Sep 1965 UTC launched from the Tyuratam Missile And Space Complex (TTMTR). Debris objects in space refer to the collection of defunct objects orbiting the Earth. Examples of debris include non-operational satellites, rocket bodies, and fragments generated from explosions, collisions, or faulty payload assembly.

Loading next visibility...
Identifier
1589, 1965-073F
Orbit
LEO
Country
Flag of CISCIS
Related business
Manufacturer
Yuzhnoe
Mission
Spacecraft
Bus & Motor
S3, Unknown motor
Mass
1,434 kg wet, 1,434 kg dry
Launch date (UTC)
1965-09-18 (61 years ago)
Launch vehicle
Unknown
Launch site
Tyuratam Missile And Space Complex (TTMTR)
Object type
Payload
Rocket body
Debris
Shape & HBR
Unknown
Radar Cross Section
Large (>1 m²)

Expand to show TLE details & history
Last TLE update: 1 day ago

TLE from 1 day ago
0 SL-8 R/B
1 01589U 65073F   26163.08820567 -.00000093  00000-0 -10597-4 0  9998
2 01589  56.0520  86.2863 0159133  13.4041  79.2250 12.33055610735074
Epoch: 2026-06-12T02:07Z
TLE epoch observation values (Epoch: 2026-06-12T02:07:00.969Z)
Latitude
55.92859°
Longitude
-107.98882°
Altitude
1,522.177 km
Speed
7.12 km/s
True Right ascension
12h 16m 45s
True Declination
55° 47' 03"
Sunlit
Object was in daylight at epoch
Visualization orbit readout
Latitude
Unknown
Longitude
Unknown
Altitude
Unknown
Speed
Unknown
Apparent Right ascension
Unknown
Apparent Declination
Unknown
Sunlit
N/A
Visualization observer readout
Local Sidereal Time
13:32:51
Azimuth
Unknown
Elevation
Unknown
Doppler factor
Unknown
Orbital elements
Apogee altitude
1,661.945 km
Perigee altitude
1,410.065 km
Semi-major axis
7,914.142 km
Eccentricity
0.01591
Inclination
56.052°
RAAN
86.2863°
Arg. of periapsis
13.4041°
True anomaly
81.02277°
Mean anomaly
79.225°
Eccentric anomaly
80.12325°
Mean motion
3.08274 °/min
Orbital period
116.78 mins
BSTAR
-0.000010597
Loading maneuver chart data...
Computing Atmospheric mass density...
Loading historical data...
Loading historical data...
Loading historical data...
Loading historical data...
Loading historical data...
Loading historical data...
Loading historical data...

Documentation

Showing up to 5 results
|